Berlin, NH

12:49 PM EDT on June 26, 2017 (GMT -0400)
Berlin Municipal

Weather History for KBML - October, 2012

Change the Weather History Date:

Friday, October 5, 2012

  Actual Average Record
Temperature  
Mean Temperature 62 °F -  
Max Temperature 73 °F 58 °F 82 °F (2005)
Min Temperature 51 °F 31 °F 18 °F (1996)
Degree Days  
Heating Degree Days 3    
Growing Degree Days 12 (Base 50)    
Moisture  
Dew Point 53 °F    
Average Humidity 88    
Maximum Humidity 100    
Minimum Humidity 45    
Precipitation  
Precipitation 0.00 in - - ()
Sea Level Pressure  
Sea Level Pressure 29.98 in    
Wind  
Wind Speed 1 mph (South)    
Max Wind Speed 8 mph    
Max Gust Speed -    
Visibility 4 miles    
Events Fog    
Averages and records for this station are not official NWS values.
T = Trace of Precipitation, MM = Missing Value Source: NWS Daily Summary

Daily Weather History Graph

Daily Weather History Graph

Search for Another Location

Airport or City:

Trip Planner

Search our weather history database for the weather conditions in past years. The results will help you decide how hot, cold, wet, or windy it might be!

Date:

Astronomy

Oct. 05, 2012 Rise Set
Actual Time 6:48 AM EDT 6:17 PM EDT
Civil Twilight 6:18 AM EDT 6:46 PM EDT
Nautical Twilight 5:45 AM EDT 7:19 PM EDT
Astronomical Twilight 5:11 AM EDT 7:53 PM EDT
Moon 9:26 PM EDT (10/5) 12:04 PM EDT (10/5)
Length of Visible Light 12h 27m
Length of Day
11h 29m
Waning Gibbous, 74% of the Moon is Illuminated
Oct 5
Waning Gibbous
Oct 8
Last Quarter
Oct 15
New
Oct 21
First Quarter
Oct 29
Full

Hourly Weather History & Observations

Time (EDT) Temp. Dew Point Humidity Pressure Visibility Wind Dir Wind Speed Gust Speed Precip Events Conditions
12:01 AM 53.6 °F 53.6 °F 100% 30.03 in 0.5 mi Calm Calm - N/A Fog Fog
12:16 AM 55.4 °F 55.4 °F 100% 30.03 in 0.5 mi Calm Calm - N/A Fog Fog
12:24 AM 55.4 °F 53.6 °F 94% 30.02 in 0.2 mi Calm Calm - N/A Fog Fog
12:52 AM 55.0 °F 54.0 °F 96% 30.02 in 0.2 mi Calm Calm - N/A Fog Fog
1:52 AM 54.0 °F 53.1 °F 97% 30.02 in 0.2 mi Calm Calm - N/A Fog Fog
2:09 AM 53.6 °F 53.6 °F 100% 30.01 in 0.2 mi Calm Calm - N/A Fog Fog
2:52 AM 53.1 °F 52.0 °F 96% 30.00 in 0.2 mi Calm Calm - N/A Fog Fog
3:03 AM 53.6 °F 51.8 °F 94% 29.99 in 1.0 mi Calm Calm - N/A   Mist
3:06 AM 53.6 °F 51.8 °F 94% 29.99 in 2.5 mi Calm Calm - N/A   Overcast
3:13 AM 53.6 °F 51.8 °F 94% 29.99 in 6.0 mi East 3.5 mph - N/A   Overcast
3:48 AM 53.6 °F 51.8 °F 94% 29.99 in 1.5 mi Calm Calm - N/A   Overcast
3:50 AM 53.6 °F 51.8 °F 94% 29.99 in 0.8 mi Calm Calm - N/A   Overcast
4:01 AM 53.6 °F 51.8 °F 94% 29.99 in 0.2 mi Calm Calm - N/A Fog Fog
4:32 AM 53.6 °F 51.8 °F 94% 30.00 in 0.8 mi Calm Calm - N/A   Mist
4:52 AM 54.0 °F 53.1 °F 97% 30.00 in 0.2 mi Calm Calm - N/A Fog Fog
5:52 AM 52.0 °F 52.0 °F 100% 30.01 in 0.2 mi SSW 3.5 mph - N/A Fog Fog
6:09 AM 51.8 °F 51.8 °F 100% 30.01 in 0.5 mi SSE 3.5 mph - N/A Fog Fog
6:22 AM 51.8 °F 51.8 °F 100% 30.01 in 1.5 mi Calm Calm - N/A   Overcast
6:47 AM 51.8 °F 51.8 °F 100% 30.00 in 2.5 mi SSW 3.5 mph - N/A   Overcast
6:52 AM 52.0 °F 51.1 °F 97% 30.01 in 3.0 mi South 3.5 mph - N/A   Overcast
7:06 AM 51.8 °F 51.8 °F 100% 30.00 in 2.5 mi South 3.5 mph - N/A   Overcast
7:14 AM 51.8 °F 51.8 °F 100% 30.00 in 5.0 mi South 4.6 mph - N/A   Overcast
7:34 AM 51.8 °F 51.8 °F 100% 30.00 in 1.8 mi South 3.5 mph - N/A   Overcast
7:42 AM 51.8 °F 51.8 °F 100% 30.00 in 0.8 mi Calm Calm - N/A   Overcast
7:52 AM 53.1 °F 52.0 °F 96% 30.00 in 0.8 mi SSW 3.5 mph - N/A   Overcast
8:02 AM 53.6 °F 51.8 °F 94% 30.00 in 1.5 mi South 3.5 mph - N/A   Overcast
8:07 AM 53.6 °F 51.8 °F 94% 29.99 in 3.0 mi South 4.6 mph - N/A   Overcast
8:24 AM 55.4 °F 53.6 °F 94% 30.00 in 4.0 mi South 3.5 mph - N/A   Overcast
8:38 AM 55.4 °F 53.6 °F 94% 30.00 in 2.0 mi Calm Calm - N/A   Overcast
8:52 AM 57.0 °F 55.0 °F 93% 30.00 in 1.2 mi SE 3.5 mph - N/A   Overcast
8:55 AM 57.2 °F 55.4 °F 94% 29.99 in 1.5 mi Calm Calm - N/A   Overcast
8:58 AM 57.2 °F 55.4 °F 94% 29.99 in 4.0 mi Calm Calm - N/A   Mostly Cloudy
9:22 AM 60.8 °F 55.4 °F 82% 30.00 in 10.0 mi South 4.6 mph - N/A   Mostly Cloudy
9:52 AM 61.0 °F 55.9 °F 83% 30.00 in 10.0 mi SSW 4.6 mph - N/A   Mostly Cloudy
10:43 AM 64.4 °F 55.4 °F 73% 29.98 in 10.0 mi WNW 5.8 mph - N/A   Scattered Clouds
11:52 AM 69.1 °F 54.0 °F 58% 29.96 in 10.0 mi WNW 4.6 mph - N/A   Clear
12:52 PM 71.1 °F 53.1 °F 53% 29.95 in 10.0 mi Variable 5.8 mph - N/A   Clear
1:52 PM 73.0 °F 52.0 °F 48% 29.93 in 10.0 mi Variable 3.5 mph - N/A   Partly Cloudy
2:52 PM 71.1 °F 53.1 °F 53% 29.91 in 10.0 mi SW 8.1 mph - N/A   Scattered Clouds
3:52 PM 73.9 °F 51.1 °F 45% 29.89 in 10.0 mi Calm Calm - N/A   Clear
4:52 PM 71.1 °F 51.1 °F 49% 29.89 in 10.0 mi SW 6.9 mph - N/A   Mostly Cloudy
5:52 PM 69.1 °F 52.0 °F 54% 29.90 in 10.0 mi Calm Calm - N/A   Partly Cloudy
6:52 PM 62.1 °F 57.0 °F 84% 29.91 in 10.0 mi Calm Calm - N/A   Overcast
7:52 PM 59.0 °F 55.9 °F 90% 29.91 in 9.0 mi Calm Calm - N/A   Overcast
8:52 PM 57.0 °F 54.0 °F 89% 29.90 in 9.0 mi Calm Calm - N/A   Mostly Cloudy
9:52 PM 55.9 °F 53.1 °F 90% 29.88 in 9.0 mi Calm Calm - N/A   Clear
10:52 PM 57.0 °F 54.0 °F 89% 29.89 in 8.0 mi Calm Calm - N/A   Overcast
11:52 PM 57.9 °F 54.0 °F 87% 29.87 in 9.0 mi Calm Calm - N/A   Mostly Cloudy